When you browse on this site, cookies collect data to enhance your experience and personalize the content and advertising you see.
Visit our Privacy Policy to learn more. By continuing to use the site, you agree to this use of cookies and data.

Hourly Weather Yelsk

Today, 8 August, Saturday

Time Temperature Precipitation Wind Pressure Humidity
00:00 +19°C° 0 mm 2 mps 752 mmHg 89%
01:00 +19°C° 0 mm 2 mps 753 mmHg 91%
02:00 +18°C° 0 mm 2 mps 753 mmHg 93%
03:00 +18°C° 0 mm 2 mps 753 mmHg 94%
04:00 +18°C° 0 mm 2 mps 753 mmHg 95%
05:00 +17°C° 0 mm 2 mps 753 mmHg 95%
06:00 +19°C° 0 mm 2 mps 753 mmHg 88%
07:00 +21°C° 0 mm 2 mps 753 mmHg 80%
08:00 +24°C° 0 mm 2 mps 753 mmHg 71%
09:00 +25°C° 0 mm 2 mps 753 mmHg 65%
10:00 +26°C° 0 mm 3 mps 753 mmHg 59%
11:00 +27°C° 0 mm 3 mps 753 mmHg 52%
12:00 +27°C° 0 mm 3 mps 752 mmHg 53%
13:00 +28°C° 0 mm 3 mps 752 mmHg 53%
14:00 +28°C° 0 mm 3 mps 751 mmHg 55%
15:00 +28°C° 0 mm 3 mps 751 mmHg 56%
16:00 +27°C° 0 mm 3 mps 751 mmHg 58%
17:00 +27°C° 0 mm 3 mps 750 mmHg 59%
18:00 +25°C° 0 mm 2 mps 750 mmHg 65%
19:00 +24°C° 0 mm 2 mps 750 mmHg 71%
20:00 +22°C° 0 mm 1 mps 750 mmHg 77%
21:00 +21°C° 0 mm 1 mps 750 mmHg 80%
22:00 +21°C° 0 mm 1 mps 750 mmHg 83%
23:00 +20°C° 0 mm 1 mps 750 mmHg 86%

Tomorrow, 9 August, Sunday

Time Temperature Precipitation Wind Pressure Humidity
00:00 +19°C° 0 mm 1 mps 750 mmHg 88%
01:00 +19°C° 0 mm 1 mps 750 mmHg 89%
02:00 +18°C° 0 mm 1 mps 750 mmHg 91%
03:00 +18°C° 0 mm 1 mps 750 mmHg 92%
04:00 +18°C° 0 mm 1 mps 750 mmHg 92%
05:00 +16°C° 0 mm 1 mps 749 mmHg 93%
06:00 +19°C° 0 mm 1 mps 749 mmHg 86%
07:00 +21°C° 0 mm 1 mps 749 mmHg 79%
08:00 +23°C° 0 mm 1 mps 750 mmHg 72%
09:00 +24°C° 0 mm 1 mps 749 mmHg 65%
10:00 +26°C° 0 mm 2 mps 749 mmHg 59%
11:00 +27°C° 0 mm 2 mps 749 mmHg 52%
12:00 +28°C° 0 mm 2 mps 749 mmHg 50%
13:00 +28°C° 0 mm 2 mps 749 mmHg 49%
14:00 +28°C° 0 mm 2 mps 748 mmHg 47%
15:00 +28°C° 0 mm 2 mps 748 mmHg 50%
16:00 +28°C° 0 mm 2 mps 748 mmHg 53%
17:00 +27°C° 0 mm 2 mps 748 mmHg 56%
18:00 +25°C° 0 mm 2 mps 748 mmHg 63%
19:00 +23°C° 0 mm 2 mps 748 mmHg 70%
20:00 +21°C° 0 mm 2 mps 748 mmHg 77%
21:00 +21°C° 0 mm 1 mps 748 mmHg 80%
22:00 +20°C° 0 mm 1 mps 748 mmHg 84%
23:00 +19°C° 0 mm 1 mps 748 mmHg 87%

Day after tomorrow, 10 August, Monday

Time Temperature Precipitation Wind Pressure Humidity
00:00 +19°C° 0 mm 1 mps 748 mmHg 89%
01:00 +19°C° 0 mm 1 mps 748 mmHg 91%
02:00 +18°C° 0 mm 1 mps 748 mmHg 93%
03:00 +18°C° 0 mm 1 mps 747 mmHg 94%
04:00 +18°C° 0 mm 1 mps 747 mmHg 94%
05:00 +16°C° 0 mm 1 mps 747 mmHg 95%
06:00 +19°C° 0 mm 1 mps 747 mmHg 88%
07:00 +21°C° 0 mm 1 mps 748 mmHg 81%
08:00 +23°C° 0 mm 2 mps 748 mmHg 75%
09:00 +24°C° 0.5 mm 2 mps 748 mmHg 69%
10:00 +26°C° 0.5 mm 2 mps 748 mmHg 63%
11:00 +27°C° 0.5 mm 2 mps 748 mmHg 57%
12:00 +27°C° 0.4 mm 2 mps 747 mmHg 56%
13:00 +28°C° 0.4 mm 2 mps 747 mmHg 54%
14:00 +28°C° 0.4 mm 2 mps 747 mmHg 53%
15:00 +28°C° 0.3 mm 2 mps 747 mmHg 55%
16:00 +28°C° 0.3 mm 2 mps 747 mmHg 56%
17:00 +27°C° 0.3 mm 2 mps 746 mmHg 58%
18:00 +25°C° 0.3 mm 1 mps 746 mmHg 66%
19:00 +23°C° 0.3 mm 1 mps 746 mmHg 73%
20:00 +21°C° 0.3 mm 1 mps 746 mmHg 80%
21:00 +21°C° 0.4 mm 1 mps 746 mmHg 82%
22:00 +20°C° 0.4 mm 1 mps 747 mmHg 85%
23:00 +20°C° 0.4 mm 1 mps 747 mmHg 87%

11 August, Tuesday

Time Temperature Precipitation Wind Pressure Humidity
00:00 +19°C° 0 mm 1 mps 747 mmHg 89%
01:00 +19°C° 0 mm 1 mps 747 mmHg 91%
02:00 +19°C° 0 mm 1 mps 746 mmHg 92%
03:00 +18°C° 0 mm 1 mps 746 mmHg 93%
04:00 +18°C° 0 mm 1 mps 747 mmHg 94%
05:00 +18°C° 0 mm 1 mps 747 mmHg 95%
06:00 +18°C° 0 mm 2 mps 747 mmHg 90%
07:00 +20°C° 0 mm 2 mps 747 mmHg 85%
08:00 +21°C° 0 mm 2 mps 747 mmHg 81%
09:00 +24°C° 0.6 mm 2 mps 747 mmHg 74%
10:00 +25°C° 0.6 mm 3 mps 747 mmHg 67%
11:00 +27°C° 0.6 mm 4 mps 747 mmHg 60%
12:00 +27°C° 0.3 mm 4 mps 747 mmHg 57%
13:00 +27°C° 0.3 mm 4 mps 747 mmHg 54%
14:00 +28°C° 0.3 mm 4 mps 747 mmHg 51%
15:00 +27°C° 0.1 mm 4 mps 747 mmHg 54%
16:00 +26°C° 0.1 mm 3 mps 747 mmHg 57%
17:00 +26°C° 0.1 mm 3 mps 747 mmHg 59%
18:00 +24°C° 0.1 mm 3 mps 747 mmHg 66%
19:00 +21°C° 0.1 mm 3 mps 747 mmHg 73%
20:00 +19°C° 0.1 mm 2 mps 747 mmHg 80%
21:00 +18°C° 0 mm 2 mps 747 mmHg 82%
22:00 +17°C° 0 mm 3 mps 748 mmHg 84%
23:00 +16°C° 0 mm 3 mps 748 mmHg 86%

12 August, Wednesday

Time Temperature Precipitation Wind Pressure Humidity
00:00 +14°C° 0 mm 3 mps 748 mmHg 87%
01:00 +13°C° 0 mm 3 mps 748 mmHg 88%
02:00 +14°C° 0 mm 2 mps 748 mmHg 90%
03:00 +13°C° 0 mm 2 mps 748 mmHg 90%
04:00 +12°C° 0 mm 2 mps 749 mmHg 91%
05:00 +12°C° 0 mm 2 mps 749 mmHg 92%
06:00 +12°C° 0 mm 3 mps 749 mmHg 86%
07:00 +14°C° 0 mm 3 mps 749 mmHg 80%
08:00 +16°C° 0 mm 3 mps 749 mmHg 74%
09:00 +17°C° 0 mm 3 mps 749 mmHg 68%
10:00 +18°C° 0 mm 3 mps 750 mmHg 62%
11:00 +19°C° 0 mm 3 mps 750 mmHg 55%
12:00 +19°C° 0 mm 3 mps 750 mmHg 55%
13:00 +19°C° 0 mm 3 mps 750 mmHg 55%
14:00 +19°C° 0 mm 3 mps 750 mmHg 55%
15:00 +19°C° 0 mm 3 mps 750 mmHg 56%
16:00 +19°C° 0 mm 3 mps 750 mmHg 56%
17:00 +19°C° 0 mm 3 mps 750 mmHg 57%
18:00 +17°C° 0 mm 3 mps 750 mmHg 64%
19:00 +16°C° 0 mm 2 mps 750 mmHg 70%
20:00 +14°C° 0 mm 2 mps 750 mmHg 77%
21:00 +14°C° 0 mm 2 mps 750 mmHg 80%
22:00 +13°C° 0 mm 2 mps 750 mmHg 84%
23:00 +12°C° 0 mm 1 mps 751 mmHg 87%

13 August, Thursday

Time Temperature Precipitation Wind Pressure Humidity
00:00 +12°C° 0 mm 2 mps 751 mmHg 89%
01:00 +12°C° 0 mm 2 mps 751 mmHg 90%
02:00 +10°C° 0 mm 2 mps 751 mmHg 92%
03:00 +11°C° 0 mm 1 mps 751 mmHg 93%
04:00 +11°C° 0 mm 1 mps 751 mmHg 94%
05:00 +11°C° 0 mm 1 mps 751 mmHg 94%
06:00 +13°C° 0 mm 1 mps 751 mmHg 86%
07:00 +15°C° 0 mm 1 mps 751 mmHg 78%
08:00 +18°C° 0 mm 1 mps 751 mmHg 70%
09:00 +19°C° 0 mm 1 mps 751 mmHg 63%
10:00 +21°C° 0 mm 1 mps 751 mmHg 56%
11:00 +23°C° 0 mm 1 mps 751 mmHg 49%
12:00 +22°C° 0 mm 1 mps 750 mmHg 49%
13:00 +22°C° 0 mm 1 mps 750 mmHg 49%
14:00 +22°C° 0 mm 1 mps 750 mmHg 49%
15:00 +22°C° 0 mm 1 mps 750 mmHg 50%
16:00 +22°C° 0 mm 1 mps 750 mmHg 52%
17:00 +22°C° 0 mm 1 mps 749 mmHg 53%
18:00 +20°C° 0 mm 1 mps 749 mmHg 57%
19:00 +19°C° 0 mm 1 mps 749 mmHg 62%
20:00 +18°C° 0 mm 1 mps 749 mmHg 67%
21:00 +16°C° 0 mm 1 mps 749 mmHg 71%
22:00 +15°C° 0 mm 1 mps 749 mmHg 75%
23:00 +14°C° 0 mm 1 mps 749 mmHg 79%
Show more